星链-5350 (STARLINK-5350 )

导读 | 星芒AI

STARLINK-5350 是 SpaceX Starlink 卫星互联网项目中的一颗低轨道通信卫星。它属于 Starlink 群体部署的一部分,旨在为全球用户提供高速互联网接入服务。该卫星采用现代化设计,配备先进推进系统和通信设备,支持宽带数据传输。作为近地轨道卫星,STARLINK-5350 有助于减少网络延迟,提升连接质量,尤其在偏远地区具有重要意义。其部署是 SpaceX 扩展全球网络覆盖、实现互联网普及目标的关键步骤之一。

基本信息
目录编号:
56419
目录名称:
STARLINK-5350
国际标识:
2023-061AX
轨道中心:
EARTH
卫星名称:
星链-5350
卫星全名:
星链-5350 (STARLINK-5350 )
卫星状态:
在轨 (已飞行962 天)
发射日期:
2023-05-04 UTC
国别 :
美国 (US)
星等 :
--
轨道信息
数据来源 国际轨道数据
星历时间: 2025-12-20T08:29:11+0800
1天前
查看轨道信息
半长轴: 6937.218km
偏心率: 0.0001039
轨道倾角: 43.005°
近地点辐角 265.107°
升交点赤经 257.082°
平近点角 94.966°
近地点: 558.36km
远地点: 559.802km
周期: 95.838分钟
每日圈数: 15.025356
详细信息
固有亮度:
5
最大亮度:
2.5
卫星平台:
Starlink v1.5
覆盖范围:
全球
运营商:
太空探索技术公司
运营商所在国:
美国
制造商(研发单位):
太空探索技术公司
制造商所在国:
美国
使用方式:
暂无
卫星简介
星链(Starlink)计划是由太空探索技术公司(SpaceX)提出的一个巨型低轨卫星互联网星座项目,计划在2019年至2024年间在太空搭建由约1.2万颗卫星组成的“星链”网络,其中1584颗将部署在地球上空550千米处的近地轨道,并从2020年开始工作。该卫星仍在工作。
2D轨道图
3D轨道图
轨道高度分析图
轨道倾角分析图
轨道综合分析图
查看轨道综合分析图